Location: Hradec Kralove
(50.2170°N, 15.8330°E)
Time: 06:48:44
(UTC+02:00)

TIGRISAT - Pass Details

Date: 09 August 2024
Orbit: 591 x 667 km, 97.7° (Epoch: 19 September)

Event Time Altitude Azimuth Distance (km) Brightness Sun altitude
Rises 03:11:55 0° 121° (ESE) 2,929 ? -18.1°
Reaches altitude 10° 03:14:41 10° 103° (ESE) 2,010 ? -17.9°
Maximum altitude 03:17:39 18° 60° (ENE) 1,531 ? -17.6°
Drops below altitude 10° 03:20:34 10° 17° (NNE) 1,987 ? -17.4°
Sets 03:23:17 0° 359° (N) 2,883 ? -17.1°
